Погода в Алькала-де-Энаресе

Испания     40°29′25″N   3°23′03″W
темп.,
°C
ветер,
м/с
пор.,
м/с
влажн.,
%
обл.,
%
осадки,
мм/ч
давл.,
гПа
погр.,
м
8 мая, сб
сб823:00+19ююз22350 0.0 101625
02:00+17ююв11434 0.0 101613
05:00+15всв115245 0.0 101614
08:00+15св225410 0.0 101630
11:00+21ююв3435100 0.0 1015676
14:00+26ю7923100 0.0 10122504
17:00+27ююз81020100 0.0 10092750
20:00+25юз6925100 0.0 10081152
9 мая, вс
вс923:00+20ю4838100 0.0 1008228
02:00+18ю4104240 0.0 1008407
05:00+16ююз71246100 0.1 1008669
08:00+14ю51166100 0.6 1008575
11:00+17ююз81241100 0.1 10071611
14:00+19юз91332100 0.1 10062311
17:00+13юз81372100 0.8 10071244
20:00+12ююз5108321 2.4 1007764
10 мая, пн
пн1023:00+11юз497993 0.3 1009332
02:00+10юз368330 0.4 1010153
05:00+8ююз238644 0.1 1010116
08:00+8ююз47851 0.1 1012340
11:00+12юз68524 0.0 10111175
14:00+16юз89365 0.0 10102154
17:00+18юз91031100 0.0 10072838
20:00+14юз8104997 0.1 10091591
11 мая, вт
вт1123:00+11зюз577399 0.3 1013508
02:00+10зюз586851 0.9 1014672
05:00+8з58615 0.0 1015516
08:00+8з47585 0.0 1018567
11:00+12зсз68404 0.0 10191697
14:00+15сз710288 0.0 10192750
17:00+16сз89295 0.0 10192360
20:00+15ссз57325 0.0 10191868
12 мая, ср
ср1223:00+11сз14495 0.0 1021257
02:00+9ююз01545 0.0 102121
05:00+8юв126261 0.0 102056
08:00+8ю136698 0.0 1020202
11:00+9зюз3465100 0.2 1021488
14:00+13юз4556100 0.4 1019907
17:00+18зюз4940100 0.0 10162399
20:00+16зсз7114213 0.0 10171645